Find Kosmos-2304

NORAD ID: 23446 Int'l Des: 1994-086 Owner: VKS Country: RU operational
LEOCIRCULARPOLAR

リアルタイム位置

3D地球を読み込み中...

Kosmos-2304について

説明を読み込み中...

次回通過

Passes for default location (London). Set your location on the main map for personalized predictions.

高度履歴

Loading altitude history...

軌道要素

1 23446U 94086F 26104.45952387 .00000020 00000-0 52004-4 0 9999
2 23446 82.5761 0.9152 0003803 334.3831 199.2110 12.62202990441641
Epoch: Apr 14, 2026 • Age: 12 hours

現在のステータス

高度 1432.9 km
速度 7.14 km/s
衛星直下点 -47.33°S, 4.65°E
打ち上げ日 Dec 26, 1994
運用期間 31.2 years
タイプ other

技術仕様

分類 Payload
質量 225.00 kg
乾燥質量 225.00 kg
総質量 225.00 kg
長さ 1.60 m
直径 0.80 m
スパン 7.00 m
形状 Cyl + Ant
製造者 NPOPMR
バスタイプ Strela-3
フェーズステータス In Orbit
所有者/国 VKS/RU

Most Searched